Theta_e
325 325 327 328 328 327 327 326 325 325 324 325 325 326 326 326 326 327 327 326 328 328 327 327 327 326 326 326 326 325 325 325 325 325 325 325 325 326 326 327 325 323 325 324 325 325 324 323 322 321 320 320 320 320 321 321 320 319 318 314 309 306 303 301 300 298 302 304 304 303 304 305 304 305 305 305 307 309 308 305 305 304 304 303 303
324 324 325 326 327 327 326 325 324 324 324 324 323 324 326 326 327 327 327 328 329 328 327 326 326 326 325 325 325 325 324 325 324 325 325 324 324 325 325 325 324 323 323 324 324 326 324 323 322 321 322 322 320 320 320 321 321 319 318 316 314 310 305 303 299 299 299 302 303 303 303 305 302 304 303 303 305 307 307 306 306 305 305 303 301
324 324 324 324 325 326 326 324 324 324 323 323 323 324 325 326 328 328 328 328 328 328 326 325 326 325 325 324 324 323 323 323 323 324 324 324 324 324 325 324 323 322 323 324 325 325 323 323 322 322 323 320 319 320 319 320 321 320 319 317 315 313 308 304 301 300 300 301 302 302 302 303 302 302 302 303 304 307 307 306 306 306 307 304 302
323 324 323 323 325 325 325 325 324 324 322 323 323 324 325 326 328 328 328 327 327 326 325 324 324 324 323 323 323 323 322 322 322 323 324 324 324 324 324 324 323 323 324 324 325 324 323 322 322 322 322 321 319 319 318 318 319 319 317 315 315 312 309 304 304 302 301 301 301 303 302 302 301 302 303 302 301 304 306 306 306 305 305 306 303
323 324 324 323 323 322 322 324 324 324 323 323 323 324 324 326 327 327 327 326 326 324 323 323 322 322 322 322 322 323 322 322 322 321 322 324 325 324 324 323 323 323 324 324 326 324 323 322 322 322 321 320 318 318 318 317 318 317 316 313 313 310 309 306 303 304 303 302 303 303 303 302 303 303 302 300 299 300 302 303 305 306 305 305 305
323 323 324 323 322 322 322 323 323 324 323 323 323 324 325 325 326 324 324 324 323 323 323 322 322 321 321 322 322 322 322 322 321 320 321 323 324 324 323 322 322 323 322 322 323 322 323 323 322 321 321 321 320 318 316 315 315 314 314 314 310 309 307 305 304 304 304 303 303 302 302 303 302 302 303 302 300 299 299 301 303 306 306 306 306
318 322 322 321 322 322 323 324 324 324 323 323 323 324 324 325 325 324 324 323 322 322 322 321 321 321 319 319 320 321 322 321 320 319 321 322 322 322 321 321 321 321 322 321 322 322 322 322 321 321 321 321 319 318 316 313 314 313 314 313 308 308 308 305 305 305 303 302 302 304 304 304 303 302 303 303 302 301 299 299 300 303 305 306 306
314 318 321 321 322 322 323 322 323 323 323 323 323 323 323 323 323 324 324 323 323 322 321 320 316 313 311 311 310 311 310 308 309 314 321 321 320 320 320 319 319 318 319 320 321 321 321 321 321 321 322 321 320 317 317 317 313 312 311 312 308 306 307 305 305 304 303 302 303 302 301 303 302 304 304 303 301 301 303 301 299 300 302 305 306
309 311 317 321 321 321 321 321 321 321 321 322 323 323 322 322 323 322 322 321 323 322 318 314 311 309 307 306 305 304 304 302 301 301 308 318 318 319 318 318 316 316 315 317 319 320 320 320 320 320 322 322 316 317 317 317 316 312 311 311 307 306 306 306 306 305 303 303 302 303 301 301 302 302 301 300 301 301 303 302 301 302 302 302 304
306 308 308 313 320 321 321 321 320 321 321 322 323 323 323 322 322 321 321 322 320 317 314 311 309 307 305 303 302 301 300 300 300 298 298 308 314 317 316 315 314 313 314 314 315 319 320 319 319 322 319 316 312 309 308 309 311 315 313 312 307 304 304 305 304 305 305 304 304 303 302 302 301 302 303 302 304 304 302 302 301 302 300 302 303
303 305 305 306 312 320 321 321 321 320 322 322 323 323 322 321 320 320 320 318 316 314 311 308 306 305 304 302 300 299 298 297 295 293 295 303 311 312 312 312 312 313 313 314 316 317 314 315 315 319 317 315 308 302 303 303 304 306 307 310 310 306 305 305 305 304 304 305 303 304 303 303 303 303 303 304 302 302 303 302 303 302 301 300 301
302 303 304 305 307 315 320 320 319 320 322 322 322 322 321 320 319 318 317 315 313 310 308 305 304 302 301 300 298 297 296 295 292 293 294 296 304 310 311 312 312 312 313 313 314 315 314 312 311 312 311 308 306 304 303 301 300 300 301 300 300 301 303 308 307 306 306 306 304 304 303 304 303 304 303 303 304 303 304 303 303 302 301 300 300
301 301 302 303 305 307 318 319 319 318 319 321 320 319 319 318 317 315 314 312 309 306 304 302 301 300 300 298 297 297 296 294 293 294 295 296 300 308 311 311 311 309 310 312 312 312 310 310 307 306 306 311 310 305 302 301 299 298 299 301 300 297 295 295 299 306 306 305 306 305 304 304 305 306 306 305 306 307 304 304 304 303 304 302 302
300 301 302 302 303 304 311 316 316 316 316 317 317 318 316 315 314 313 311 308 305 302 301 300 300 299 298 297 296 296 295 294 293 294 295 297 300 306 313 313 313 313 312 312 312 311 309 307 305 301 299 300 300 301 306 302 302 305 309 309 310 307 303 301 300 300 304 306 303 303 304 307 306 306 308 307 308 307 305 306 302 303 302 303 303
300 301 302 302 303 303 304 311 311 312 312 312 312 311 311 310 310 309 306 304 302 301 300 299 299 299 298 297 296 295 295 293 293 294 295 297 300 304 311 310 308 307 307 307 306 305 302 300 298 297 298 299 299 299 306 306 309 311 311 310 307 305 304 304 304 305 306 308 308 307 305 305 306 307 305 305 308 308 309 309 307 307 307 303 304
299 300 301 302 303 303 303 304 307 308 309 309 308 307 307 306 305 305 304 303 302 301 300 300 298 298 298 297 296 295 295 292 293 294 296 299 302 308 306 304 302 300 300 300 299 298 298 296 295 295 295 296 296 295 302 310 312 311 309 306 304 301 300 302 297 297 301 303 304 304 303 303 298 301 301 303 304 303 304 304 304 303 303 303 303
298 299 300 301 302 303 303 303 303 304 305 306 305 305 304 304 304 305 303 302 302 301 301 300 299 298 297 296 295 294 294 293 293 294 296 299 302 305 302 300 298 297 297 297 298 298 297 296 295 295 294 294 294 293 296 301 305 307 307 305 302 299 297 299 298 296 295 294 295 295 296 297 298 299 299 298 300 301 303 306 306 303 303 302 301
298 299 299 301 302 302 303 303 302 303 303 303 303 303 303 303 303 303 303 302 301 301 301 300 299 298 297 296 296 295 294 294 292 294 295 297 302 303 301 299 297 297 296 296 296 296 299 302 300 295 294 293 291 292 294 299 299 300 300 299 297 295 295 297 299 298 296 296 296 296 296 296 297 298 299 299 300 299 304 303 306 301 302 299 299
298 299 299 301 302 302 302 303 303 302 302 302 303 302 302 302 302 303 302 302 301 301 300 298 298 298 297 298 299 296 295 295 293 292 294 296 302 305 304 301 299 298 297 296 296 295 295 296 296 295 294 292 290 291 292 297 298 298 296 294 294 294 295 295 296 295 296 297 298 299 298 298 299 299 301 298 301 303 304 304 303 302 301 301 301
299 300 300 301 301 302 302 302 302 302 302 303 303 303 303 303 302 302 302 301 300 299 298 297 296 296 297 297 297 296 295 295 294 292 293 294 298 305 305 303 302 301 301 299 297 296 296 295 295 290 290 290 290 290 290 293 298 297 295 294 293 293 295 294 296 295 295 296 296 296 296 297 297 298 299 301 303 304 303 304 304 303 303 302 303
300 300 300 300 300 301 301 301 301 302 302 302 303 303 303 303 302 302 301 301 299 298 297 297 297 297 297 298 298 298 298 296 294 292 293 293 294 297 301 301 301 301 299 298 298 297 297 296 295 292 290 290 290 290 290 290 293 297 296 295 296 295 294 293 294 296 296 296 296 296 296 297 297 297 299 300 301 302 302 302 303 303 303 303 303
299 299 299 299 299 299 300 300 301 301 301 301 301 301 303 304 303 302 301 300 299 298 297 297 296 296 296 297 297 297 298 298 296 293 292 292 293 295 298 299 299 300 298 298 297 297 297 297 295 292 290 290 290 290 290 290 291 296 293 290 287 288 294 294 294 295 296 296 297 297 297 297 297 298 299 299 300 301 301 302 302 303 304 305 305
297 298 298 298 298 299 299 299 299 300 300 300 300 299 300 302 304 303 302 301 299 298 297 297 297 296 296 297 297 297 297 297 294 295 292 292 291 292 293 296 295 300 298 297 297 296 297 296 296 292 290 290 291 291 291 291 293 292 289 288 286 286 291 293 293 295 295 295 295 296 296 296 297 298 298 298 299 300 300 300 301 301 300 300 299
297 296 297 297 297 297 298 299 298 298 298 298 299 298 299 299 300 302 303 302 300 298 298 298 297 296 296 296 297 297 297 297 294 293 293 291 291 291 290 291 294 298 299 298 298 297 296 295 293 290 291 291 291 291 291 292 292 290 290 289 288 289 293 295 296 296 294 295 296 296 296 296 297 297 297 297 297 297 298 298 298 298 297 296 294
296 296 296 296 295 295 296 296 297 297 296 296 296 297 297 298 298 299 300 301 301 300 298 298 297 296 296 296 296 296 296 296 295 293 292 291 291 290 290 290 290 292 296 296 295 295 291 291 291 291 292 292 292 293 293 292 291 292 292 293 296 296 296 296 296 296 296 294 294 295 294 294 294 293 294 293 293 293 293 296 295 295 296 296 295
295 295 295 295 295 295 294 294 294 295 295 295 295 295 295 296 296 297 298 298 298 298 298 298 297 296 295 295 294 294 295 294 294 294 293 293 292 291 290 290 291 291 292 292 290 290 290 291 292 293 293 294 296 295 294 294 291 292 292 294 294 294 294 294 294 293 293 292 292 292 291 292 291 293 291 292 292 292 291 292 292 293 294 294 294
294 294 294 295 295 294 293 293 292 292 292 294 294 293 293 293 294 294 295 296 296 297 297 297 296 295 294 293 293 293 292 292 291 291 291 292 292 292 292 292 292 291 292 291 292 293 294 295 293 292 292 291 291 292 292 292 293 294 293 293 293 293 293 292 292 292 290 290 289 290 290 290 291 290 291 291 291 291 291 290 290 291 291 291 290
292 293 293 293 294 295 293 290 291 291 291 291 291 292 292 291 290 289 290 292 295 295 296 295 294 294 293 293 292 291 291 291 290 289 289 290 290 290 290 290 288 288 288 288 290 293 293 292 292 293 293 293 293 292 292 291 291 290 291 291 291 292 293 293 292 290 289 288 289 288 288 289 289 289 289 290 289 290 290 289 289 290 290 289 288
291 291 292 292 292 293 294 293 292 291 291 290 290 289 289 290 290 290 290 289 290 294 294 294 294 294 294 293 292 290 290 290 290 288 287 287 287 290 289 288 288 288 288 287 292 292 292 291 290 291 290 288 288 289 289 289 288 289 291 290 290 291 290 290 289 288 287 287 287 286 286 286 287 287 287 288 289 288 288 288 287 288 288 287 286
290 290 291 291 291 292 292 292 292 291 291 291 290 290 287 289 289 290 289 290 289 289 289 291 293 292 291 291 291 291 290 290 289 287 288 288 288 288 288 287 287 288 288 289 292 290 289 288 288 288 288 288 287 287 287 287 287 287 287 288 288 289 288 288 287 287 286 286 286 285 284 284 284 285 285 285 286 286 286 286 285 285 285 286 285
289 289 290 290 289 290 291 291 292 291 291 290 291 290 290 290 288 288 289 289 289 289 289 289 289 290 292 290 289 288 288 288 288 289 289 289 288 288 288 288 287 287 289 290 289 288 288 287 287 287 287 287 287 286 286 287 286 286 287 285 285 285 285 286 285 284 284 284 284 283 282 282 282 282 282 283 283 284 285 284 283 284 284 284 283
289 288 289 289 290 289 289 290 291 291 291 291 289 289 289 289 290 289 289 289 289 289 289 289 289 289 289 290 291 290 289 289 289 289 289 289 289 288 288 288 288 289 289 290 288 287 287 287 286 286 286 286 286 285 286 286 286 286 285 286 286 285 285 285 284 283 283 283 283 283 283 282 282 282 282 283 282 283 283 283 283 283 283 283 284
289 288 288 289 289 289 288 289 290 290 290 289 290 289 288 287 287 288 290 289 290 289 289 289 289 289 289 289 289 288 288 289 289 290 289 289 289 289 289 289 289 289 290 288 287 286 286 287 286 286 286 285 285 285 284 286 285 284 284 284 285 284 285 284 284 283 283 283 282 282 281 281 281 280 281 281 281 281 282 282 282 282 282 283 283
289 287 287 288 289 289 289 289 289 290 291 289 289 288 287 288 287 287 287 288 289 290 290 289 289 290 289 289 289 289 289 289 289 289 289 289 289 289 289 289 289 289 289 287 287 285 286 285 285 285 284 284 284 284 284 285 283 285 284 284 284 284 284 283 284 283 282 282 282 280 281 281 280 281 281 281 281 282 282 282 282 282 282 281 282
289 288 287 288 288 288 286 288 288 290 290 290 289 288 288 286 286 286 286 287 287 287 287 289 289 289 288 288 289 288 288 289 289 289 289 289 289 289 289 289 287 287 288 288 287 286 285 285 284 284 286 285 284 284 284 285 284 284 284 284 284 283 283 283 282 282 281 281 282 281 280 281 281 280 280 281 282 282 281 281 281 281 281 281 282
290 288 288 288 289 287 286 286 287 289 289 289 290 289 288 288 287 287 287 287 287 287 287 287 287 288 289 289 288 289 288 288 288 288 288 289 289 289 288 286 286 286 285 285 285 285 285 285 286 285 286 285 286 285 285 285 284 284 284 283 283 282 281 281 282 281 280 280 280 281 282 281 281 279 279 280 281 280 280 281 281 282 282 283 282
289 288 286 287 288 288 288 288 287 286 287 286 287 288 288 288 288 288 287 287 286 286 286 286 287 288 288 288 288 288 289 288 288 288 288 288 288 288 286 285 285 285 285 284 285 285 285 284 284 286 286 285 284 284 285 284 283 284 285 283 283 282 281 282 281 280 281 281 280 279 278 279 279 279 278 279 279 280 280 281 281 282 284 285 285
289 287 286 286 287 288 288 288 286 284 285 285 287 287 287 287 287 286 286 285 285 285 287 286 286 285 285 285 291 287 287 288 289 288 288 288 286 285 285 285 285 285 285 284 285 284 284 284 285 286 287 286 284 283 283 283 283 283 284 282 282 283 285 282 281 279 279 278 277 277 278 278 278 279 280 279 279 279 280 281 281 282 283 284 285
287 286 286 285 285 287 286 286 286 285 285 284 284 285 285 285 285 286 286 285 284 285 285 285 284 284 284 284 285 288 288 286 285 285 285 285 285 285 285 285 285 285 285 284 284 284 284 285 286 287 286 283 283 283 283 282 282 282 281 281 280 279 279 278 279 278 278 278 278 277 277 277 278 278 279 279 280 278 278 278 280 280 281 282 282
287 288 287 287 288 286 286 286 285 287 285 285 285 285 285 285 285 284 284 284 283 283 284 285 284 283 284 284 285 286 285 284 283 283 284 285 285 286 286 285 285 285 285 285 284 283 284 284 286 285 284 283 283 283 283 283 280 280 279 279 279 278 279 278 277 278 278 277 276 276 276 277 277 277 277 278 278 277 278 280 280 279 279 279 281
289 290 289 289 288 289 289 285 284 285 284 284 284 285 284 284 285 284 284 283 283 282 283 284 284 284 285 285 287 287 285 284 284 283 284 285 286 287 287 287 286 287 286 285 284 282 283 284 283 283 282 282 283 283 282 282 281 280 279 280 279 279 279 278 277 277 276 276 276 276 277 277 277 277 280 280 283 280 278 279 280 282 282 282 281
289 290 292 291 290 289 289 286 284 285 285 284 283 283 283 283 283 283 284 284 283 283 283 283 284 284 286 288 287 287 285 283 283 285 286 287 287 287 286 286 286 286 287 286 285 283 282 282 282 281 282 282 283 282 283 283 283 284 283 281 281 281 281 280 279 279 277 277 278 278 277 279 281 281 280 284 280 280 281 281 280 280 281 282 281
287 289 291 291 292 290 289 287 285 285 284 284 283 284 284 283 283 282 282 282 283 283 284 284 286 286 286 286 286 285 284 283 285 286 286 286 284 285 284 283 283 285 286 285 283 283 283 282 282 280 281 284 284 283 282 281 280 280 280 281 281 281 280 280 280 280 279 279 280 280 280 279 280 281 281 281 281 283 284 283 283 283 284 283 283
287 287 289 290 291 290 288 288 287 285 284 285 284 284 284 283 283 283 283 282 283 283 284 285 284 285 284 285 285 284 284 285 286 285 284 283 283 283 282 282 282 283 283 283 282 280 281 281 281 280 280 281 282 283 281 280 281 280 278 279 279 279 277 277 277 277 278 278 279 279 279 279 281 281 283 284 283 283 283 284 284 284 284 284 284
286 286 287 288 289 288 290 287 286 284 284 284 284 283 284 284 284 283 283 283 283 283 282 285 286 286 286 284 284 286 286 286 285 284 283 283 283 282 280 280 280 281 280 281 280 279 281 280 279 278 279 279 279 280 280 279 279 278 277 278 278 278 277 277 277 277 278 279 282 283 282 280 281 283 284 284 284 282 282 283 284 284 284 284 284
287 287 286 287 288 288 289 288 287 284 283 283 284 284 283 283 283 283 284 284 284 283 283 285 285 285 285 285 284 285 286 286 284 283 283 282 281 281 280 280 280 280 279 279 278 279 277 277 277 277 277 278 279 280 280 279 279 279 279 278 276 277 277 275 275 276 277 278 280 281 282 283 283 283 283 282 282 282 280 282 284 284 283 283 283
287 286 287 287 287 288 289 288 285 283 284 283 285 284 283 283 283 283 284 284 283 284 283 284 285 286 286 287 287 286 285 284 283 283 282 282 281 280 279 279 280 280 280 280 278 276 277 277 277 277 278 277 277 279 278 278 278 277 278 277 276 276 275 275 276 276 276 277 278 277 277 278 279 280 282 282 281 281 282 282 282 282 282 282 283
287 286 286 286 287 288 287 285 284 284 283 284 284 284 284 283 283 283 282 282 283 283 283 285 286 287 287 287 287 286 286 286 286 286 283 281 280 279 279 280 280 278 278 279 278 277 277 276 276 278 278 277 278 277 277 278 278 277 277 276 277 277 277 277 278 278 278 278 279 278 278 278 277 278 279 279 278 278 280 282 282 282 282 281 282
286 285 286 286 286 286 287 287 285 284 284 285 284 284 284 284 283 283 283 283 284 284 284 284 285 287 287 286 285 286 287 286 286 285 284 283 281 279 280 280 280 279 278 278 277 277 277 278 279 279 278 276 276 276 276 276 277 277 276 277 276 276 276 277 277 277 278 277 278 277 277 277 278 278 278 278 278 277 279 281 282 283 283 281 280
284 285 285 285 286 287 288 289 287 286 285 284 284 285 285 284 283 282 283 282 282 283 284 284 286 286 285 285 286 287 287 287 286 284 283 282 281 280 279 279 278 277 277 276 277 276 276 276 277 277 277 276 275 275 275 275 276 276 275 274 276 276 276 276 277 276 277 276 276 277 277 277 276 277 276 276 276 276 277 280 282 283 282 281 280
284 284 285 285 287 286 286 287 287 288 287 285 284 283 284 283 283 283 282 283 283 284 285 286 286 286 286 286 287 287 286 286 284 284 283 282 281 281 279 279 280 278 277 276 277 275 277 277 277 278 277 278 276 275 274 274 273 273 275 275 275 275 275 276 276 276 277 278 276 277 277 277 277 277 276 276 275 275 278 278 278 278 278 280 281
Wind_Speed
7 7 11 13 13 12 10 10 10 8 7 5 8 10 10 10 9 7 6 7 4 6 6 6 6 6 6 7 7 7 7 7 6 7 6 6 6 7 6 6 7 5 5 5 4 5 6 5 5 4 3 4 5 5 6 5 6 6 6 7 7 6 6 4 6 3 0 1 3 4 6 7 5 6 7 6 6 5 5 4 4 4 5 6 7
8 8 9 11 15 13 11 9 8 7 9 6 5 7 8 8 7 7 10 8 8 7 7 6 6 6 6 6 6 6 6 7 6 6 7 6 6 5 6 6 6 5 5 6 5 5 5 5 5 5 4 6 5 5 6 5 6 6 6 7 7 7 6 7 5 6 7 1 3 3 5 6 6 6 8 9 7 6 7 6 5 6 7 7 7
6 8 10 11 12 11 12 11 11 11 12 11 10 10 8 7 7 8 8 9 8 8 7 7 7 7 6 5 5 5 6 6 6 7 7 7 7 6 6 7 6 6 6 6 7 5 5 5 6 5 4 4 4 5 4 5 4 6 6 5 6 7 7 7 6 6 8 6 3 5 6 6 6 8 8 7 7 9 9 8 9 8 8 9 8
5 5 8 9 7 9 13 12 12 12 13 11 13 11 8 7 7 6 7 8 9 7 7 8 7 7 6 5 5 6 5 6 6 7 8 8 7 7 6 6 6 7 7 7 6 6 6 6 6 6 5 5 5 5 4 4 5 5 5 5 6 6 6 5 8 8 8 8 5 8 7 8 6 3 6 5 6 8 9 8 5 7 7 7 7
2 4 5 5 6 4 2 5 8 11 13 12 12 11 9 8 8 8 7 9 9 8 7 6 7 7 7 7 7 7 7 6 7 6 6 6 7 7 7 7 7 7 6 7 7 7 7 7 7 6 5 6 5 5 5 5 4 4 5 4 4 4 4 7 6 5 8 9 7 3 4 4 2 3 6 8 6 5 4 6 7 7 7 7 6
5 2 3 5 4 4 4 5 7 8 11 11 12 11 9 8 8 8 8 8 8 9 8 6 7 6 6 7 7 8 7 6 6 6 6 6 6 7 7 7 7 6 6 6 6 6 6 7 6 6 6 7 7 5 4 4 4 4 4 3 3 4 5 5 5 6 9 10 9 4 4 7 5 5 8 8 8 7 6 6 4 6 6 7 8
11 7 3 3 3 4 6 7 8 9 9 9 10 9 9 8 10 12 11 10 10 9 7 6 5 5 4 4 5 6 6 5 5 5 5 6 6 6 6 6 6 6 6 7 6 6 7 7 7 7 7 7 6 5 4 4 4 4 5 4 4 4 5 6 6 6 7 7 5 7 7 6 6 8 6 7 5 5 7 5 7 8 6 8 9
10 10 7 5 3 4 5 3 4 4 5 8 9 9 9 10 6 10 13 14 11 8 8 6 3 5 4 4 3 3 4 3 2 2 5 6 6 5 6 6 6 6 6 6 6 7 7 7 7 7 7 7 5 4 5 4 3 3 3 4 5 5 5 5 6 6 6 6 7 7 5 6 4 1 2 4 4 4 5 7 10 9 9 9 11
8 7 8 3 3 5 6 3 3 3 4 5 8 8 10 11 10 5 7 8 7 7 8 8 8 7 6 6 6 5 5 4 2 1 1 4 5 6 6 5 5 5 4 6 6 6 6 6 5 6 6 6 7 7 6 6 5 3 3 3 6 7 6 6 7 6 6 7 6 3 5 4 6 6 5 6 9 12 10 7 8 8 6 5 8
10 8 6 7 7 4 5 5 3 3 6 6 8 8 10 13 14 12 10 7 7 9 9 8 9 9 9 7 6 5 5 3 4 5 3 2 4 4 4 4 4 5 5 4 4 5 6 5 4 7 6 7 8 7 7 7 6 6 5 5 6 6 7 6 7 7 7 7 8 7 6 7 7 8 8 9 10 8 3 6 8 10 3 6 7
9 9 10 8 7 4 4 6 5 6 7 7 7 9 8 8 8 8 6 7 11 10 10 10 9 8 9 8 7 6 4 3 5 5 4 5 3 4 4 4 4 4 5 6 6 5 4 3 2 4 5 6 5 7 8 8 7 6 5 4 7 9 7 5 6 5 6 7 4 5 8 8 8 6 7 7 4 6 8 6 8 6 6 7 9
10 10 9 10 8 6 2 5 4 6 7 9 10 11 9 13 12 5 6 11 11 10 11 10 9 8 8 8 8 5 4 5 5 4 7 8 6 4 5 5 4 4 5 5 5 6 5 5 5 4 4 2 2 3 3 3 5 6 7 10 11 10 8 4 5 5 5 5 5 5 5 6 5 5 4 3 6 5 6 6 7 8 8 7 6
10 9 10 11 10 9 4 7 8 6 7 7 7 4 7 12 11 8 10 11 11 12 10 11 9 7 8 9 8 5 5 7 5 7 8 8 7 7 5 5 5 3 3 5 6 5 6 6 6 5 4 8 4 2 2 2 6 9 10 12 12 12 13 14 10 4 3 4 5 4 3 3 2 3 2 2 4 5 2 4 6 7 7 7 8
10 10 9 11 12 10 9 6 7 6 5 3 6 7 7 11 12 10 10 11 12 11 10 11 9 8 8 9 8 6 6 7 6 8 9 11 10 9 7 9 8 7 6 5 6 6 6 6 6 5 4 4 3 2 1 3 4 4 6 8 7 10 13 14 14 14 9 5 4 3 2 1 2 1 2 1 1 0 2 2 2 3 3 6 5
12 12 11 12 14 14 14 4 5 5 8 9 8 5 7 7 10 10 11 12 12 11 11 10 8 8 8 7 8 8 6 8 8 10 11 12 14 11 8 9 9 9 9 8 8 8 7 7 6 5 4 4 4 1 2 3 4 6 7 7 8 7 8 8 8 6 6 6 6 4 3 3 3 1 1 2 2 1 1 1 2 2 2 2 2
13 13 14 13 14 15 15 13 3 5 9 11 11 8 8 8 7 9 11 11 10 11 8 9 9 9 7 8 10 9 7 12 11 12 12 13 15 9 9 10 10 10 9 8 9 7 7 6 6 7 5 6 8 9 7 6 8 8 8 6 6 7 6 3 4 5 4 5 4 3 3 2 1 1 2 3 3 2 2 1 1 1 4 5 4
13 13 13 13 13 14 15 13 9 8 6 11 11 9 10 11 8 4 12 11 12 11 10 8 7 8 8 8 10 9 9 12 12 13 13 14 12 9 9 9 9 11 9 7 8 8 7 6 6 6 7 7 9 11 10 10 8 7 7 6 4 5 6 5 6 8 8 8 10 8 8 8 8 7 7 3 1 2 3 7 7 5 6 7 5
12 12 13 12 12 13 13 13 11 11 8 9 11 11 10 9 11 6 8 12 12 10 10 10 8 8 9 8 8 11 9 11 13 13 14 14 13 10 9 10 9 9 8 7 7 8 9 12 8 7 7 6 10 12 11 9 8 5 5 6 6 6 6 5 3 3 5 5 8 7 9 10 10 9 10 11 8 2 4 5 5 4 4 2 5
11 11 11 11 11 12 13 12 12 12 11 9 8 11 11 11 11 11 8 9 12 9 9 11 9 7 8 10 11 12 10 11 14 14 14 13 11 9 9 10 10 7 7 7 6 6 6 8 10 8 7 7 12 12 12 9 7 5 4 6 6 7 5 5 7 8 8 8 7 7 6 9 6 5 6 11 11 7 5 2 3 3 3 4 5
8 8 9 9 9 11 12 13 12 13 12 12 11 8 8 11 12 13 11 8 8 10 10 11 12 8 7 10 10 10 11 10 12 16 14 14 12 9 7 10 9 7 6 6 6 6 6 6 7 9 10 10 10 10 10 10 7 5 6 7 6 5 3 3 5 5 4 4 4 5 5 6 7 6 7 7 7 5 6 5 5 3 3 4 5
8 8 8 10 11 12 11 11 12 12 11 12 12 10 7 8 12 13 12 10 9 9 10 11 12 10 10 10 12 12 10 10 12 15 14 14 13 10 8 9 8 8 7 7 6 6 6 5 4 7 9 8 8 8 9 9 7 6 6 6 3 1 0 4 5 5 4 4 4 5 6 6 7 6 6 7 7 6 6 5 5 5 3 4 5
6 8 9 10 10 10 11 10 10 10 11 11 13 11 8 6 10 13 11 11 11 10 9 10 11 10 10 10 11 10 10 11 8 12 14 14 13 12 7 6 7 9 8 7 6 6 5 4 4 5 7 7 7 8 9 9 8 6 6 6 5 6 4 2 3 4 5 6 6 6 6 6 6 6 6 6 6 6 6 6 6 6 4 3 4
7 7 8 9 9 9 9 10 9 9 10 10 10 8 6 4 6 12 13 12 10 10 9 9 10 10 10 9 9 8 7 8 11 9 11 12 12 12 10 7 7 6 7 6 5 5 3 3 2 5 6 7 8 9 9 9 8 6 7 7 6 5 4 4 4 6 6 6 6 7 6 6 6 6 6 6 6 6 6 6 5 5 5 5 5
9 9 8 7 7 8 9 9 9 9 9 8 7 7 6 6 9 11 10 9 8 8 7 8 9 10 10 8 7 7 6 6 10 12 11 12 11 11 12 12 10 6 6 5 4 3 3 2 2 5 8 9 11 11 12 11 8 8 7 7 5 4 4 6 6 6 6 7 8 7 7 5 5 5 6 5 5 6 5 5 6 6 6 6 4
9 9 9 8 8 7 8 9 9 9 8 8 9 8 8 9 10 8 8 7 6 8 8 8 9 9 8 7 6 6 5 6 6 8 11 11 12 12 12 12 11 8 6 4 3 3 3 5 8 8 9 12 14 14 13 14 16 15 14 12 9 7 7 7 6 7 8 7 6 6 6 5 4 3 4 4 3 3 2 4 4 4 5 5 5
9 9 8 8 8 7 8 8 9 9 8 7 7 6 6 7 7 7 7 7 6 8 8 8 8 7 6 5 5 4 5 5 5 5 6 7 8 10 10 10 9 8 6 4 4 6 7 8 12 14 13 11 10 9 9 9 13 14 14 12 8 7 7 7 7 8 7 6 6 6 5 4 4 4 3 2 1 4 3 4 4 6 6 7 7
8 8 8 8 7 7 8 7 7 8 8 7 8 8 8 7 8 8 7 6 7 7 7 7 7 6 6 5 4 4 5 5 5 5 5 5 5 5 6 6 6 6 5 5 5 5 9 11 11 12 12 15 13 10 9 8 10 9 8 7 7 7 7 7 6 6 5 5 4 4 2 3 2 3 5 5 5 4 3 4 5 6 6 6 5
7 7 8 7 6 6 6 8 8 7 8 8 8 8 8 8 9 8 6 5 6 7 6 6 6 5 5 5 4 5 4 4 5 4 5 4 4 4 4 4 5 4 5 5 5 5 7 8 10 8 8 9 8 7 7 8 8 7 7 7 7 6 6 7 6 5 4 3 2 2 3 4 5 5 5 6 5 6 5 5 3 6 6 5 5
7 8 8 7 7 5 5 5 5 6 7 8 8 7 7 6 7 7 6 4 4 5 7 6 5 4 4 4 5 5 5 5 2 2 0 1 3 5 5 5 4 5 4 3 6 7 8 9 9 9 8 8 7 7 7 8 7 7 7 6 6 5 5 5 6 5 3 4 5 4 4 5 5 5 5 6 6 6 5 6 4 4 6 3 4
7 7 6 7 6 6 5 5 5 5 5 5 7 7 9 10 7 7 6 10 15 13 8 4 3 4 6 4 2 4 5 2 2 2 1 2 3 4 4 4 4 5 4 7 9 9 8 8 7 7 7 7 7 7 6 6 6 6 6 5 5 6 6 6 6 4 4 5 4 5 5 5 6 6 6 5 6 6 5 4 4 4 4 5 5
6 6 6 6 6 6 5 5 4 4 5 4 4 6 6 8 11 12 11 12 13 14 14 13 12 10 6 6 5 7 5 2 1 2 4 5 5 7 7 8 9 8 5 9 10 8 8 8 7 7 6 7 6 6 5 6 5 6 5 5 6 6 6 6 5 4 5 5 5 4 3 3 4 4 4 5 5 6 7 6 5 6 6 5 6
6 6 5 5 6 5 4 5 4 5 5 4 5 4 5 6 6 8 10 11 12 13 13 12 11 10 9 6 4 1 3 6 8 9 10 12 13 13 13 13 12 12 11 16 10 8 7 7 7 6 5 6 5 5 5 6 5 5 4 6 6 5 6 5 2 2 3 5 5 5 4 4 5 5 5 5 5 5 6 6 7 6 6 5 5
6 5 5 5 5 5 6 5 6 5 4 3 4 4 5 6 7 6 7 9 12 13 12 11 11 11 11 11 10 8 7 9 13 15 15 15 16 17 16 15 12 11 16 13 9 7 6 6 6 5 6 6 5 5 4 4 3 4 4 4 5 4 5 2 1 4 5 5 5 5 5 5 5 4 4 5 5 4 5 5 5 4 4 6 6
5 4 4 4 4 5 6 4 5 5 5 5 4 5 3 4 5 5 6 6 7 9 10 12 12 11 12 13 12 12 13 14 15 15 15 13 14 16 16 13 15 14 13 9 8 7 6 6 5 5 3 3 3 3 3 3 3 5 5 5 5 4 3 3 6 6 5 5 5 3 3 4 5 4 4 4 4 4 6 6 6 6 6 5 5
4 6 7 5 4 4 3 4 4 5 5 5 5 5 5 5 4 5 6 6 6 6 5 7 9 12 10 9 11 13 14 15 15 14 13 12 12 13 13 11 9 8 8 7 6 6 6 6 5 4 5 5 4 4 5 4 5 5 5 5 5 5 5 5 5 4 3 3 4 3 3 3 4 4 5 5 6 6 6 6 5 5 5 5 5
4 4 4 5 5 4 3 3 3 6 6 5 5 5 5 5 5 5 4 5 5 5 6 6 4 7 13 13 12 13 15 15 15 14 13 12 9 12 10 7 7 6 6 5 6 5 5 5 5 4 5 5 5 5 4 5 5 5 4 5 5 4 3 3 2 2 2 3 4 3 5 5 4 4 4 5 4 4 4 4 4 4 4 4 4
3 3 4 3 4 3 3 3 4 5 4 6 6 6 6 6 6 5 5 5 5 4 5 4 6 7 9 7 8 11 13 14 14 13 13 12 12 10 7 6 6 6 6 6 5 5 6 5 5 5 5 5 5 5 5 5 4 4 4 3 3 4 2 2 2 3 5 5 5 4 4 4 4 4 2 3 3 2 3 3 3 4 5 6 5
1 3 3 3 4 5 4 3 3 4 4 3 6 6 6 6 6 6 6 5 4 4 6 5 5 6 6 3 5 4 6 9 13 12 10 10 9 7 6 6 6 7 6 5 4 5 5 5 5 5 5 5 5 4 4 3 3 3 4 3 3 3 4 5 4 4 4 4 3 3 2 2 1 1 1 2 2 3 3 4 4 5 5 6 5
1 4 4 7 6 5 4 3 3 3 5 4 4 4 5 6 6 6 6 5 4 4 4 4 4 5 3 2 4 3 7 7 7 7 6 6 6 6 6 6 7 6 5 5 4 5 5 5 5 5 5 5 3 2 2 2 3 3 3 4 4 4 4 4 3 2 2 1 1 1 0 1 1 1 1 3 4 3 4 4 4 3 4 5 5
2 3 5 6 6 3 1 3 2 0 1 3 4 5 6 6 6 6 4 5 4 3 4 6 5 3 1 3 4 6 7 5 5 5 5 6 6 5 5 6 6 5 5 5 5 5 5 5 4 5 4 3 3 3 3 4 3 3 3 5 4 3 1 0 1 1 0 0 1 2 3 4 3 4 3 4 3 3 4 5 4 4 3 3 4
2 4 4 5 6 5 6 5 2 1 3 2 4 4 5 4 4 5 5 4 4 3 3 3 5 2 3 6 7 8 7 6 5 5 5 5 4 4 4 4 4 5 5 5 4 3 3 3 3 3 3 3 3 4 4 4 4 4 3 2 2 1 0 0 0 1 2 2 3 4 5 5 4 4 5 6 4 4 3 3 4 5 4 3 3
4 3 4 4 6 6 6 6 4 3 0 3 3 5 4 3 3 4 6 5 6 5 6 5 5 4 5 11 10 10 7 5 4 5 4 3 4 4 3 3 4 4 4 4 3 3 2 2 2 3 4 4 4 4 4 5 4 4 3 3 2 1 2 3 3 3 4 4 4 5 4 4 6 3 3 4 5 5 6 6 4 4 5 5 4
2 2 3 4 5 5 5 5 2 1 1 3 3 4 4 4 5 5 4 5 6 6 6 6 4 4 5 6 8 7 6 5 5 5 4 4 4 3 3 2 3 4 5 5 3 3 2 2 3 3 4 4 3 2 2 3 3 3 3 4 3 4 4 3 5 5 5 4 4 4 4 5 5 4 5 5 4 4 5 5 5 5 5 4 4
2 3 5 4 4 2 3 5 5 4 4 2 4 3 3 3 4 4 4 4 4 4 6 6 5 5 3 4 5 4 4 4 3 3 3 3 3 3 2 2 3 3 2 1 1 2 2 2 3 4 4 3 2 2 2 1 1 4 4 4 3 3 3 4 4 4 4 4 4 3 4 4 3 3 4 4 4 4 5 5 6 6 5 5 4
2 3 3 3 3 3 3 4 3 2 0 1 3 2 2 3 4 4 4 5 3 3 3 4 5 5 5 3 4 5 3 3 3 3 3 3 3 3 2 2 3 3 2 1 1 2 1 1 3 4 3 3 2 4 4 3 3 4 2 4 4 4 2 2 2 2 2 2 2 4 4 4 4 5 4 4 3 4 4 4 4 5 6 6 5
1 1 2 2 1 2 3 3 1 2 4 2 4 4 3 2 3 4 4 4 4 4 2 2 3 3 5 4 3 3 4 3 3 4 4 3 3 4 5 4 3 3 2 3 3 3 2 1 3 4 3 3 4 4 4 3 4 4 4 3 2 1 0 1 2 1 1 1 2 2 2 2 3 3 4 4 3 4 3 3 4 4 4 5 5
1 1 1 0 1 1 1 2 4 1 4 3 4 4 4 3 3 3 3 4 4 3 3 3 4 4 4 3 2 2 2 2 3 2 2 3 3 3 4 4 3 2 2 1 2 3 3 2 4 4 4 3 4 4 3 3 3 3 2 1 1 1 1 2 2 1 1 1 0 1 3 2 3 3 5 4 4 5 4 4 3 4 5 4 5
2 3 3 3 1 1 1 0 1 3 3 3 4 4 4 4 3 3 3 3 4 3 3 3 2 3 3 4 4 2 1 1 2 4 3 3 3 3 4 4 5 4 2 1 1 1 2 4 4 5 4 3 4 4 3 3 3 3 1 1 1 1 2 3 1 1 1 1 0 2 3 3 3 3 3 4 3 4 4 5 5 5 5 5 5
2 3 4 5 4 4 0 0 1 4 5 4 4 5 4 3 3 3 3 4 4 4 5 5 4 4 4 3 2 3 3 3 3 3 3 3 3 3 4 4 5 5 4 4 2 2 4 4 5 4 4 3 4 4 3 2 2 1 1 1 3 5 5 6 4 3 4 2 2 2 3 3 3 3 2 3 3 2 2 3 4 4 5 4 4
3 3 3 4 5 3 1 1 3 5 5 1 1 3 3 3 3 3 3 3 4 4 3 3 4 3 3 3 4 4 1 1 4 3 4 3 3 2 4 4 4 4 4 4 3 2 4 4 4 4 4 4 3 3 2 1 1 1 1 2 4 5 5 5 5 6 4 2 2 2 2 3 2 2 2 1 1 2 3 3 3 4 4 4 4
4 3 4 5 6 3 3 2 4 6 6 6 4 3 4 5 5 4 3 4 4 4 5 5 4 4 4 5 5 5 6 4 3 4 5 3 3 1 2 4 4 3 3 3 2 3 4 4 4 5 4 4 3 2 2 2 1 1 2 4 4 5 5 5 4 6 5 3 1 2 2 2 2 2 3 3 2 2 3 3 3 4 4 4 3
Wind_Direction
189 174 170 181 186 193 193 189 176 155 141 168 180 190 183 187 178 166 168 198 178 167 166 168 172 168 163 160 162 162 163 169 167 165 174 171 177 178 174 175 172 175 175 188 183 173 178 181 190 203 172 178 193 188 186 176 165 173 173 167 175 171 153 163 180 193 125 128 153 173 157 145 170 185 171 176 178 192 192 193 193 195 207 211 218
197 197 207 193 187 183 183 190 167 164 155 135 185 216 197 181 165 147 190 183 184 174 168 169 171 170 166 165 163 160 160 167 165 160 168 173 175 179 172 173 174 168 174 183 183 184 179 183 194 200 187 192 188 190 192 185 167 168 182 169 177 183 186 158 179 158 197 150 139 96 156 176 169 187 179 178 191 184 193 199 200 206 209 214 217
217 218 216 201 199 178 181 187 174 165 160 165 178 209 201 181 177 175 177 175 177 173 167 165 170 170 168 165 164 169 166 164 165 164 168 171 174 177 176 174 173 171 179 188 188 182 179 189 199 201 193 199 202 205 191 201 180 176 181 181 174 191 190 185 151 180 177 206 158 154 176 187 184 189 198 197 186 183 190 201 206 207 216 211 216
274 275 293 283 239 188 187 183 177 166 163 171 179 192 189 184 177 179 180 168 168 173 166 159 162 167 166 166 173 177 176 167 167 170 170 171 172 176 177 179 181 180 185 189 189 182 186 188 204 199 195 197 207 212 207 195 183 193 177 190 174 184 190 191 186 167 183 160 205 184 186 175 218 210 191 175 180 194 202 209 212 220 223 221 223
312 282 278 282 285 290 261 215 191 174 164 169 178 179 181 184 178 176 172 171 166 163 166 157 155 160 168 176 180 181 180 173 169 172 171 170 172 173 176 181 185 187 188 189 189 189 187 193 202 197 187 194 209 209 206 198 191 178 194 191 166 183 176 187 189 171 151 182 192 198 163 194 188 172 181 178 198 215 221 216 214 222 228 232 233
308 285 249 238 242 247 212 205 213 193 172 169 173 176 178 179 172 153 162 174 171 163 161 166 165 166 177 182 180 181 178 173 171 166 169 170 174 174 176 177 181 183 187 193 192 189 188 195 196 188 186 196 207 203 192 193 174 188 200 197 165 179 184 179 166 177 174 182 169 155 166 179 189 197 193 195 182 197 219 231 236 229 226 238 237
325 301 290 291 294 257 231 218 210 198 179 172 172 173 174 172 165 159 169 176 187 160 156 160 181 170 171 174 179 177 175 176 175 167 167 170 174 173 176 181 176 178 189 196 194 191 193 192 191 186 189 198 199 191 174 173 180 197 200 192 176 174 185 176 164 169 179 172 182 186 174 196 183 194 205 193 196 194 201 207 241 234 222 222 242
339 326 312 313 316 308 290 305 265 241 206 173 173 173 161 158 180 180 171 169 178 156 150 146 100 90 99 102 80 90 99 74 64 160 177 170 170 179 177 180 180 186 192 194 191 194 196 193 190 188 189 195 188 169 159 175 169 197 223 168 171 172 184 171 165 163 166 175 174 186 192 176 210 235 103 147 185 239 218 198 219 228 226 223 226
336 350 333 306 258 223 226 265 305 243 229 196 182 173 164 152 163 199 195 168 156 135 115 117 114 101 87 88 82 71 74 54 32 0 234 178 175 175 182 178 169 168 178 186 190 192 191 191 190 190 194 185 165 173 178 167 154 183 240 172 169 169 177 168 177 160 168 170 191 178 156 172 204 174 163 175 196 210 214 190 226 238 241 254 255
331 329 351 338 310 248 217 202 217 240 217 198 197 179 167 162 166 168 209 157 123 111 113 112 116 119 107 89 83 76 65 59 19 7 331 218 187 162 165 158 159 168 155 159 175 184 184 182 193 185 170 136 159 181 166 170 181 163 183 174 157 150 163 169 178 185 167 171 185 172 177 200 202 199 195 207 207 217 157 173 219 239 224 256 281
347 337 336 341 328 284 215 210 205 223 207 192 196 184 162 140 141 200 171 118 117 118 114 112 106 105 103 103 89 74 63 41 33 33 31 73 126 124 129 147 152 150 155 154 168 170 172 146 112 113 118 133 157 170 161 155 155 139 150 173 162 149 148 146 184 178 175 185 165 168 183 199 217 207 213 214 208 201 210 199 216 226 215 226 249
353 350 346 336 341 321 234 209 213 250 215 189 193 176 152 148 168 201 127 120 117 113 109 108 108 104 102 96 87 80 68 23 43 71 70 71 90 115 119 118 131 142 142 142 149 156 132 87 64 58 51 64 162 153 126 114 126 131 108 69 54 52 54 120 154 156 167 147 148 177 165 195 214 180 211 185 213 204 209 195 205 212 219 217 230
349 356 359 359 343 325 249 188 196 201 228 200 154 208 158 151 148 146 131 122 113 108 111 108 102 100 102 97 85 69 64 21 28 60 70 74 80 89 72 86 82 79 114 138 141 122 108 98 77 47 30 32 33 18 101 95 58 55 69 72 63 62 62 63 70 113 153 117 134 174 176 171 153 236 209 221 154 161 171 196 219 218 218 226 232
5 358 -0 18 358 349 319 187 189 185 184 208 158 178 138 134 132 138 122 112 108 107 105 101 101 98 93 94 89 66 52 10 36 57 62 64 69 78 82 82 75 60 45 44 64 71 76 91 88 60 25 35 25 358 38 96 75 72 64 63 70 53 48 48 47 48 53 86 104 89 347 65 52 21 1 28 50 36 159 213 186 210 213 220 225
14 8 5 15 21 2 351 327 114 122 111 108 92 78 90 101 117 121 116 116 116 113 113 106 100 98 92 92 88 68 38 10 48 59 61 74 80 81 81 82 77 65 53 53 59 65 69 75 80 77 53 46 25 23 133 118 95 82 80 72 68 64 57 46 43 46 54 57 70 85 53 72 100 84 4 37 100 136 180 220 216 216 218 247 270
15 11 13 10 29 16 2 338 25 93 114 112 107 100 92 85 87 106 106 102 95 98 85 94 99 92 87 87 82 66 38 24 45 60 71 85 88 85 80 78 80 74 64 58 64 63 63 66 72 63 54 49 21 52 81 111 102 102 93 83 68 58 50 35 76 64 76 80 75 77 86 107 171 310 328 352 347 357 3 334 33 44 13 346 306
17 10 13 13 19 32 11 353 348 41 69 102 99 95 97 91 65 33 101 100 101 93 95 86 83 88 83 76 83 70 47 19 35 61 73 90 90 90 86 82 77 78 72 68 72 73 70 67 67 67 54 44 29 52 63 84 85 91 98 91 78 61 34 4 7 27 35 59 50 53 54 34 21 11 8 8 333 321 16 19 353 356 4 335 311
14 14 14 10 19 32 26 5 360 33 32 75 98 99 94 86 88 51 78 100 93 94 100 92 79 80 82 75 73 83 62 31 33 51 68 77 96 97 95 90 79 79 78 64 64 66 58 58 68 69 60 41 26 41 45 71 77 78 81 78 58 45 20 1 11 36 45 65 49 47 50 28 21 15 16 12 23 54 40 22 326 2 331 280 278
11 10 8 1 18 25 36 16 10 26 39 33 61 92 95 97 97 90 76 82 93 93 87 88 85 75 81 86 73 75 68 41 35 43 55 68 85 99 100 98 92 77 80 75 60 62 57 48 49 56 66 48 42 41 40 56 78 70 81 79 66 51 2 349 18 11 10 15 11 12 20 20 16 22 17 28 43 51 60 28 340 17 318 289 279
360 5 8 10 14 31 32 27 11 22 26 39 35 42 85 97 95 96 84 64 83 93 92 89 85 72 65 75 70 66 68 55 40 41 43 50 68 88 92 101 100 99 85 81 74 56 54 51 43 43 57 55 51 48 48 53 75 70 69 71 71 46 341 14 36 31 21 25 360 9 11 5 15 23 28 32 32 33 37 31 23 6 327 295 284
8 7 15 23 23 34 35 37 24 21 24 33 35 24 11 80 95 87 89 88 78 71 82 87 84 76 66 62 66 59 58 61 44 46 44 45 47 69 88 96 106 103 96 80 72 69 53 45 41 31 42 46 52 51 55 61 74 80 76 84 89 129 339 38 17 26 34 20 15 21 23 20 24 26 28 27 22 14 12 16 17 9 339 317 301
13 18 25 28 28 31 37 35 31 30 25 33 44 20 356 21 81 94 93 88 83 80 73 79 83 80 72 63 64 61 49 51 63 49 52 51 50 52 77 88 104 107 93 87 83 74 62 53 48 33 36 38 45 56 58 57 58 71 79 105 107 67 65 70 38 27 28 24 19 22 24 26 26 25 22 23 15 4 2 1 2 354 340 293 270
18 22 26 33 33 31 32 34 37 35 36 30 43 43 338 342 67 87 89 87 85 85 82 83 86 82 73 62 58 62 59 53 51 59 54 57 56 58 61 68 73 79 100 102 97 98 99 66 57 43 49 59 65 63 57 51 52 59 70 64 67 67 57 52 50 42 36 31 36 34 27 29 27 20 16 9 359 349 350 352 349 353 348 343 336
21 23 25 26 29 35 32 33 34 36 35 38 43 51 35 22 46 62 75 90 100 101 97 89 83 79 77 71 59 54 52 56 48 52 60 59 57 55 55 57 65 78 81 93 96 97 81 63 27 45 67 72 74 71 61 58 61 60 65 73 75 61 60 42 40 39 48 45 43 37 28 18 24 21 7 350 344 340 332 343 346 355 353 334 323
20 21 22 21 21 29 38 35 33 34 36 39 42 32 33 33 48 41 61 69 83 89 85 83 80 78 75 72 63 49 45 49 46 36 48 61 62 63 62 57 49 55 65 48 52 45 34 34 41 52 66 77 83 77 64 59 61 62 60 56 59 55 52 56 52 56 57 47 47 41 30 15 8 348 332 339 322 316 306 327 335 346 341 337 321
17 14 16 20 19 21 34 38 38 34 34 38 42 37 39 45 57 54 63 70 74 84 87 81 81 81 81 79 72 62 47 53 47 32 28 41 48 46 54 55 59 66 77 66 38 38 39 68 87 88 81 79 72 66 65 63 64 62 56 53 55 54 55 62 56 61 60 53 50 41 17 349 354 327 305 294 358 6 342 339 349 350 347 347 344
21 16 14 12 16 25 33 33 39 37 32 32 41 39 34 37 49 46 47 61 75 87 97 97 95 94 97 87 78 66 56 46 37 37 26 36 36 28 36 34 32 46 51 35 37 51 77 87 90 88 86 76 75 72 66 59 56 51 50 50 55 57 60 63 75 81 74 72 58 36 336 314 286 342 354 358 355 336 356 346 360 338 339 335 340
21 16 17 16 15 15 32 33 41 47 38 36 34 31 35 40 51 41 27 19 69 90 95 99 105 113 111 107 102 85 77 64 44 30 20 26 33 39 43 39 33 29 38 24 43 60 77 72 66 57 63 60 57 52 49 53 55 57 55 55 55 54 60 69 64 59 52 55 44 358 358 358 9 349 340 349 342 331 351 354 350 333 331 339 359
25 21 18 24 25 24 30 31 40 49 54 53 51 41 30 30 51 58 37 9 7 69 98 89 91 88 94 93 96 89 64 59 28 291 291 20 42 46 33 26 9 32 33 26 89 72 68 61 58 57 54 63 55 54 48 52 51 52 57 54 54 62 67 64 65 53 40 52 47 32 11 0 355 347 348 347 342 330 343 341 340 9 323 8 345
26 22 23 26 19 34 42 37 31 35 49 69 73 59 48 55 47 62 51 36 50 47 51 79 82 102 92 50 39 99 108 133 248 331 352 102 99 84 77 67 54 49 53 70 85 76 70 70 60 65 61 63 62 56 53 55 57 53 48 48 51 52 49 50 52 46 42 51 37 34 14 4 359 353 345 340 322 330 331 347 328 336 355 347 335
25 22 27 25 18 33 46 49 48 57 38 29 48 82 75 47 52 56 61 63 58 53 54 54 52 46 70 87 44 60 96 117 130 105 95 100 95 86 79 75 65 54 72 87 56 70 74 74 65 61 64 67 67 64 57 59 51 59 47 48 51 53 49 50 29 32 43 42 32 28 14 11 357 347 354 346 342 340 347 0 11 4 5 346 349
33 16 28 32 26 21 42 54 42 52 57 55 35 44 73 78 57 47 62 69 65 67 64 61 57 58 59 76 100 71 39 33 39 50 67 78 83 82 73 67 65 71 75 87 80 65 71 80 74 66 70 71 64 58 56 58 47 46 45 52 40 36 53 48 13 60 58 48 37 29 20 14 14 8 8 3 3 9 0 1 4 5 0 2 6
48 24 24 30 36 23 21 34 49 47 37 47 76 57 71 85 79 63 39 60 75 73 64 58 55 53 49 47 50 55 39 42 56 66 74 81 83 80 74 66 64 76 77 70 89 80 73 77 78 70 68 76 62 62 55 63 65 51 51 67 62 36 45 23 29 57 46 40 39 31 16 10 5 12 17 12 18 10 4 10 355 7 16 15 357
79 64 38 33 40 28 31 36 41 42 38 37 63 104 94 87 97 90 79 55 41 40 43 45 43 39 37 40 39 39 47 61 67 70 72 74 78 78 81 74 65 56 77 93 84 89 80 79 72 69 64 68 64 65 68 62 70 82 75 70 70 60 42 28 52 42 42 34 44 35 27 16 10 21 15 19 18 24 20 7 9 12 7 5 352
82 63 48 45 50 31 32 46 48 48 55 57 50 74 97 93 83 68 70 77 68 52 32 17 27 43 48 38 41 55 62 65 68 69 68 70 78 83 75 66 60 48 53 63 82 87 90 83 83 66 59 56 50 69 79 75 73 70 72 66 54 50 42 45 51 53 60 53 54 44 40 41 24 27 30 28 24 19 7 4 359 2 357 354 357
58 53 50 36 30 4 23 49 39 70 75 62 66 67 91 97 86 83 68 61 59 54 35 22 15 10 40 46 59 75 71 67 64 63 64 62 62 74 77 73 72 66 72 63 78 76 79 80 72 61 57 58 59 61 70 75 70 73 69 80 80 78 80 69 65 69 61 70 56 38 35 31 26 26 20 38 35 17 2 352 343 345 0 6 352
89 75 65 54 48 16 0 22 43 24 63 89 77 72 69 76 88 95 85 78 66 51 46 29 25 27 35 41 54 70 72 76 70 64 61 62 64 71 86 89 91 85 82 83 82 80 71 58 58 53 49 57 49 53 61 67 73 82 86 95 110 105 100 109 71 61 49 45 30 32 33 23 17 15 38 40 8 4 358 356 0 1 5 2 356
127 109 105 72 50 31 8 343 352 32 29 42 85 102 96 89 91 101 108 104 107 84 63 40 46 57 58 38 17 57 72 67 64 53 44 44 46 55 63 74 81 91 92 78 77 89 82 62 48 55 44 49 46 39 66 89 109 114 113 104 93 82 69 56 43 46 49 47 28 8 14 9 359 4 43 68 39 14 5 7 12 4 357 2 8
13 44 56 77 72 44 4 332 328 10 41 47 63 80 93 94 94 99 111 120 109 94 88 74 61 62 69 77 43 21 61 46 57 58 53 50 51 56 66 71 80 83 86 90 85 78 75 60 46 47 48 49 61 73 107 120 110 100 95 86 66 52 54 50 49 38 42 28 351 310 306 326 344 355 23 42 13 7 357 355 3 12 5 348 342
355 20 13 36 57 51 24 311 294 113 92 99 103 109 100 110 119 123 125 118 119 115 111 92 71 44 32 76 87 82 83 77 77 78 71 61 57 55 65 78 81 90 94 86 78 76 70 60 58 58 52 50 58 62 67 86 90 86 77 78 89 77 43 77 146 103 24 271 354 349 353 342 344 344 3 13 350 344 348 339 328 323 316 311 313
70 58 41 24 33 14 12 29 28 223 157 156 136 109 105 109 112 116 117 114 110 94 68 86 99 92 99 106 106 103 110 113 104 91 84 81 73 69 66 73 86 84 83 90 92 93 89 80 68 75 62 58 60 71 75 81 81 80 88 96 93 118 218 256 278 324 340 355 351 346 336 328 340 13 338 321 328 337 327 322 322 327 318 307 299
73 66 60 34 23 12 14 0 22 16 311 135 95 104 118 123 127 126 124 127 130 125 111 100 110 116 118 110 106 109 105 114 108 88 72 73 82 84 88 99 97 108 108 120 133 121 102 72 52 56 51 39 48 50 69 76 90 99 92 84 76 54 34 1 350 343 338 336 328 328 318 317 317 323 301 306 325 336 336 333 322 312 315 316 316
71 66 93 78 52 19 9 339 353 64 196 108 123 145 151 144 149 141 130 139 140 136 129 131 123 107 97 102 106 101 107 113 110 125 138 138 124 139 153 127 129 116 120 136 145 137 129 101 66 46 45 35 44 56 87 126 123 108 99 86 75 63 44 23 23 14 1 347 335 332 331 334 335 333 334 335 331 332 331 326 321 325 318 321 324
66 51 32 49 58 29 31 26 38 23 305 174 166 166 153 136 125 123 127 136 143 149 147 142 136 112 110 109 108 100 118 134 135 144 144 149 159 178 150 145 160 141 128 85 131 148 94 55 34 31 24 21 38 112 94 72 138 130 126 111 92 76 55 32 21 2 350 342 319 336 347 343 349 358 360 357 354 357 349 351 355 347 338 327 330
100 81 77 45 16 29 17 50 34 99 303 253 109 56 62 108 118 118 118 125 138 147 167 157 141 139 139 146 137 134 152 139 143 146 164 171 181 201 203 200 197 190 178 147 149 123 120 82 55 54 26 17 46 82 83 70 61 71 81 99 96 77 55 359 319 288 284 290 315 358 359 4 0 10 4 358 11 14 7 353 343 355 354 348 344
89 131 122 130 85 334 30 6 16 143 148 183 135 136 132 115 122 133 135 143 152 159 171 165 123 133 152 183 165 137 158 156 169 186 181 179 186 199 200 183 177 179 174 141 128 134 132 134 107 96 94 80 77 75 67 65 59 57 52 59 85 118 260 261 268 292 283 267 2 353 337 357 11 12 357 345 350 6 2 343 356 3 357 343 342
353 311 304 83 123 150 34 342 352 61 133 153 150 136 133 147 151 148 153 159 160 160 156 155 151 164 167 153 154 209 207 133 118 136 146 155 185 166 149 144 144 165 186 150 120 127 134 121 124 122 120 109 94 82 69 61 60 60 53 52 36 345 307 297 282 258 259 288 227 105 65 60 35 11 1 359 10 3 2 5 0 348 346 348 342
302 311 313 319 351 89 122 199 109 104 115 146 147 145 153 166 161 159 154 153 159 172 171 183 163 138 152 167 171 184 238 75 133 156 148 167 169 147 135 139 144 161 158 171 147 101 94 99 110 114 111 95 89 83 77 66 57 46 37 8 349 318 313 312 313 340 336 328 180 105 96 74 45 34 15 20 17 13 14 356 348 353 353 347 350
313 315 329 319 317 302 4 310 136 144 151 165 157 154 160 152 167 174 175 171 180 180 163 173 171 165 146 182 189 192 187 140 119 125 159 177 170 148 132 134 142 147 151 167 205 115 89 103 108 111 109 102 99 92 81 72 53 34 17 359 350 351 355 356 8 0 347 6 43 89 100 86 68 47 37 28 11 4 4 346 357 350 347 351 1
292 284 266 263 272 281 301 273 126 136 121 114 213 174 174 170 180 186 197 173 165 170 177 173 177 175 166 168 151 147 150 156 116 150 178 203 181 175 128 126 142 156 161 170 200 110 103 109 105 109 107 107 103 106 111 109 100 46 10 353 1 7 4 358 17 10 2 1 47 66 90 96 85 55 57 59 12 19 17 351 344 338 357 342 338
290 264 264 256 255 230 171 167 143 160 153 159 183 206 199 192 195 191 174 165 171 167 164 182 191 159 168 175 156 174 174 187 148 166 171 189 190 212 149 128 132 144 160 167 148 107 122 116 115 110 116 114 118 119 120 112 96 56 23 17 18 11 10 14 11 354 357 356 120 99 80 76 61 30 9 10 18 17 351 323 338 0 354 332 310